Погода в Лаукуве

Поиск расширенной информации на нашем сайте:

Полезная информация:

Новости сайта



02.01.2020
Опубликован Долгосрочный прогноз погоды по городам России и ближнего зарубежья на январь 2020 года.
Карты: Прогноз на январь и февраль 2020 года, Сравнение прогнозируемой аномалии приземной температуры воздуха на январь 2020 года по разным моделям.




Погода в Лаукуве - сегодня

Время (UTC), дата Ветер
(°,м/с) 
Видим.   Явления Облачность Т
(°С)
Тd
(°С)
f(%) Тe
(°С)
Pmin
(гПа)
dP
(гПа)
Po
(мм)
O2
(г/м3)
Тmin Tmax R s Состояние
почвы
09 16.01.21 070 (В) 4-4{05}  15000 м  в посл. час снег  5/5 1000 м 
[Sc]
-10.8 -12.2 89 -15  1013.4  -0.5  744  313           
12 16.01.21 070 (В) 6-8{09}  9000 м  слаб. снег  8/8 450 м средняя 
[Frnb|As op]
-12.7 -14.8 84 -19  1014.7  745  316      20   
15 16.01.21 040 (СВ) 4-5{09}  15000 м  {снег}  3/3 1000 м 
[Sc]
-15.5 -17.8 82 -20  1017.4  2.4  746  320           
18 16.01.21 060 (СВ) 4-6{07}  18000 м  {снег}  3/0 верхняя 
[Ci sp]
-19.6 -22 81 -25  1019.4  1.6  748  326    -9.6  20   
21 16.01.21 070 (В) 3-4{06}  18000 м    5/0 верхняя 
[Ci fib]
-19.6 -22.2 80 -24  1020.4  748  327           
00 17.01.21 300 (СЗ) 1-1{05}  12000 м    ясно 
-22.1 -23.8 86 -22  1021.1  0.5  749  330        20   
03 17.01.21 080 (В) 1-1{02}  11000 м    ясно 
-23.1 -25.2 83 -24  1021.9  0.7  749  332           
06 17.01.21 070 (В) 2-3{03}  0200 м  переохл. туман [диам. изморози 1 мм]  ?/?  
-19.5 -21.6 83 -22  1022  0.4  750  327  -24.2      20  неравномерный
сухой снег
100% 
09 17.01.21 040 (СВ) 1-2{05}  6000 м  дымка{туман}  3/3 1000 м 
[Sc]
-18.3 -20.6 82 -19  1023.1  1.2  750  326           
12 17.01.21 110 (В) 1-1{02}  13000 м  {туман}  1/0 средняя 
[Ac trans]
-15.2 -17.2 85 -15  1022.9  751  322        20   
15 17.01.21 260 (З) 1-2{02}  7000 м  дымка  3/0 верхняя 
[Ci fib]
-17.5 -19.6 84 -18  1023.2  -0.1  751  325           
18 17.01.21 270 (З) 1-1{02}  6000 м  дымка  3/0 верхняя 
[Ci fib]
-19.8 -22.2 81 -20  1023.7  0.3  751  328    -13.5    20   
21 17.01.21 260 (З) 1-1{02}  6000 м  дымка  ясно <0100 м 
-21.7 -24.2 80 -22  1023.7  -0.2  751  330           
00 18.01.21 180 (Ю) 1-2{02}  8000 м  дымка  3/0 верхняя 
[Ci fib]
-20.7 -23.5 78 -21  1022.8  -0.9  750  329        20   
03 18.01.21 150 (ЮВ) 2-2{04}  11000 м    9/0 средняя 
[Ac trans]
-20.9 -23.5 80 -24  1022.6  -0.2  750  329           
06 18.01.21 140 (ЮВ) 3-3{03}  5000 м  слаб. снег  8/8 2000 м средняя 
[Ac As]
-19.5 -21.9 81 -24  1021.5  -0.9  749  327  -25.2    0.0  20  неравномерный
сухой снег
100% 
09 18.01.21 150 (ЮВ) 3-4{05}  6000 м  слаб. снег  10/6 420 м средняя 
[Sc|Ac As]
-14.3 -16 87 -18  1020.8  -0.2  749  320           
12 18.01.21 150 (ЮВ) 5-6{07}  5000 м  слаб. снег  10/0 средняя 
[Ac As]
-12.1 -13.6 89 -17  1019.7  -1  748  317      0.1  20   
15 18.01.21 160 (Ю) 4-6{07}  8000 м  слаб. снег  10/10 500 м 
[Frnb|Ns]
-11.2 -12.6 89 -15  1019  -0.6  748  315           
18 18.01.21 160 (Ю) 3-4{06}  10 км  слаб. снег  10/10 330 м 
[Frnb|Ns]
-10.2 -11.5 90 -13  1018.5  -0.4  748  314    -10.1  0.5  20   
21 18.01.21 200 (Ю) 2-5{06}  3500 м  слаб. снег  10/10 330 м 
[Frnb|Ns]
-9.5 -10.7 91 -11  1018.1  -0.3  747  313           
00 19.01.21 180 (Ю) 2-4{06}  7000 м  в посл. час снег  10/10 600 м 
[Sc]
-9.1 -10.3 91 -11  1017.6  -0.6  747  312      0.3  21   
03 19.01.21 170 (Ю) 4-5{06}  5000 м  слаб. снег  10/0 средняя 
[Ac As]
-9.9 -11.2 90 -14  1017.1  -0.6  747  313           
06 19.01.21 180 (Ю) 4-5{05}  10 км  в посл. час снег  10/0 средняя 
[Ac As]
-10.6 -12.4 87 -15  1017.1  747  314  -10.7    0.4  21  неравномерный
сухой снег
100% 
09 19.01.21 170 (Ю) 2-4{06}  12000 м    5/0 средняя 
[Ac trans]
-11.1 -13.4 83 -13  1016.7  -0.4  746  315           
Время (UTC), дата Ветер
(°,м/с) 
Видим.   Явления Облачность Т
(°С)
Тd
(°С)
f(%) Тe
(°С)
Pmin
(гПа)
dP
(гПа)
Po
(мм)
O2
(г/м3)
Тmin Tmax R s Состояние
почвы

Для получения пояснительной информации подведите курсор к названию столбца.

ПОГОДА в Лаукуве - архив

Всё, что Вы хотите узнать о погоде в Лаукуве - удобно и подробно!

Выберите нужную дату (начиная с 1 января 2019* года) и нажмите кнопку "Найти".
Будут отображены архивные сводки погоды по пункту Лаукува, начиная с указанной даты.


Отображать данные в формате CSV (для использования в таблицах Excel)


Внимание! Наш архив погоды предназначен исключительно для личного некоммерческого использования в познавательных целях. Если Вам необходимы официальные справки о состоянии погоды (для производственных, юридических, коммерческих и т.п. целей), обращайтесь в органы Росгидромета.

*Примечание: данная дата относится к архиву по метеостанциям СССР (Россия, СНГ, Балтия).
Архив по метеостанциям Зарубежной Европы и Азии (кроме Китая) хранится 10 дней, по другим регионам земного шара (Китай, Африка, Америка, Австралия, Океания) - 1 день.

Лаукува - район местоположения метеостанции


Название, широта, долгота, высота метеостанции:
Лаукува 55.6°ш. 22.2°д. 166 м над ур. моря [Литва]

Дополнительная информация

В oтличие oт бoльшинства пoгoдных сайтoв мы публикуем пoдрoбную метеoинфoрмацию в детальнoм прoфессиoнальнoм фoрмате.

Характеристики температуры и влажнoсти вoздуха измеряются на высoте 2 м в тени вдали oт зданий и деревьев.
Скoрoсть ветра измеряется на высoте 10 м (на урoвне рoста челoвека скoрoсть ветра ниже в 1.5-2 раза). Если метеoстанция нахoдится в гoрoде или в лесу, тo скoрoсть ветра занижена на 2-4 м/с пo сравнению с oткрытым местoм. Скoрoсть ветра над акватoриями крупных рек и oзёр, а также на вершинах хoлмoв на 2-5 м/с выше, чем в oбычных услoвиях.
Атмoсфернoе давление в разных тoчках местнoсти мoжет значительнo oтличаться oт давления на метеoстанции, в зависимoсти oт услoвий рельефа (при пoдъёме на 10 м давление пoнижается примернo на 1 мм рт.ст.).